Regional Weather Roundup
Issued by NWS New Orleans/Baton Rouge, LA

Home | Current Version | Previous Version | Graphics & Text | Print | Product List | Glossary On
Versions: 1 2 3 4 5 6 7 8 9 10 11 12 13 14 15 16 17 18 19 20 21 22 23 24 25 26 27 28 29 30 31 32 33 34 35 36 37 38 39 40 41 42 43 44 45 46 47 48 49 50
718
ASUS44 KLIX 211510
RWRLIX
NEW ORLEANS REGIONAL WEATHER ROUNDUP
NATIONAL WEATHER SERVICE NEW ORLEANS LA
1000 AM CDT TUE OCT 21 2014

NOTE: "FAIR" INDICATES FEW OR NO CLOUDS BELOW 12,000 FEET WITH NO
      SIGNIFICANT WEATHER AND/OR OBSTRUCTIONS TO VISIBILITY.
      SKY/WX - SKY CONDITION AND SIGNIFICANT WEATHER.
      TMP - AIR TEMPERATURE.     DP    - DEWPOINT TEMPERATURE.
      RH  - RELATIVE HUMIDITY.   PRES  - PRESSURE.
      HI  - HEAT INDEX.          WCI   - WIND CHILL INDEX.

*  THESE STATIONS ARE NOT NWS OR FAA STATIONS AND ARE NOT UNDER
   NWS QUALITY CONTROL.

LAZ038-040-048-061>063-065>067-069-211600-
SOUTHEAST LOUISIANA

CITY           SKY/WX    TMP DP  RH WIND       PRES   REMARKS
N.O. AUDUBON     N/A     76  54  46 MISG        N/A
N.O. INTL ARPT MOSUNNY   73  55  53 NE10      30.06R
N.O. LAKEFRONT SUNNY     71  56  58 NE13      30.07R
N.O. DOWNTOWN*   N/A     72  48  43 NE12      30.07R
SLIDELL        SUNNY     68  55  63 N8        30.07S
BATON ROUGE    SUNNY     68  54  60 NE8       30.08S
BOOTHVILLE     SUNNY     75  61  61 NE9       30.04S
BELLE CHASSE   MOSUNNY   73  55  53 NE8       30.06R
BOGALUSA*        N/A     69  55  59 NE5       30.10S
NEW ROADS*       N/A     69  53  58 CALM      30.10R
GONZALES*        N/A     69  56  62 NE6       30.07S
HAMMOND*       SUNNY     72  52  49 NE3       30.09S
HOUMA*         SUNNY    N/A N/A N/A NE9       30.06R
PORT FOURCHON* SUNNY     73  63  68 NE12G17   30.07S

$$

MSZ070-080>082-211600-
SOUTHERN MISSISSIPPI

CITY           SKY/WX    TMP DP  RH WIND       PRES   REMARKS
MCCOMB         SUNNY     68  52  56 NE5       30.10R
GULFPORT       SUNNY     69  53  56 NE7       30.06S
BILOXI         SUNNY     69  53  58 NE6       30.06F
PASCAGOULA     SUNNY     69  53  56 NE7       30.07S

$$

COASTAL OBSERVATIONS
LAKE AND NEARSHORE STATIONS

STATION/POSITION TIME  TEMP    WIND        PRES    WAVE
                       AIR SEA DIR/SP/G            HT/PER
                 (UTC) (F)     (DEG/KT/KT) (MB)    (FT/S)
PASCAGOULA       1500   68      20/  5/  7 1017.4
WAVELAND YACHT   1500   66      50/  7/  8 1017.3
GRAND ISLE       1500   72 76   50/ 10/ 13 1017.7
SOUTHWEST PASS   1500   76 83              1017.1
NEW CANAL        1500   68 71   60/ 13/ 15 1018.2
SHELL BEACH      1500   69 68   30/ 12/ 13 1017.6

OFFSHORE STATIONS

STATION/POSITION TIME  TEMP    WIND        PRES    WAVE
                       AIR SEA DIR/SP/G            HT/PER
                 (UTC) (F)     (DEG/KT/KT) (MB)    (FT/S)
64 S DAUPHIN ISL 1414   75 80   50/ 12/ 14 1017.3    2/ 5

$$




USA.gov is the U.S. government's official web portal to all federal, state and local government web resources and services.